DW7995 Weather Reports


Display with metric or nautical units.
time (UTC)temp
F
wind
direction
speed
MPH
gust
MPH
rain 1hr
in
rain 24hr
in
rain mn
in
humidity
%
barometer
mb
20260902235039 84 0 0.0 3.0 0.00 0.01 0.01 37 1021.2
20260902234606 84 0 0.0 3.0 0.00 0.01 0.01 38 1021.2
20260902234039 85 226 0.0 3.0 0.00 0.01 0.01 37 1021.2
20260902233539 85 0 0.0 4.0 0.00 0.01 0.01 38 1021.2
20260902233101 84 0 0.0 5.0 0.00 0.01 0.01 39 1021.2
20260902232544 84 182 1.0 5.0 0.00 0.01 0.01 38 1021.2
20260902232039 84 0 1.0 5.0 0.00 0.01 0.01 38 1021.2
20260902231608 84 0 0.0 5.0 0.00 0.01 0.01 39 1021.2
20260902231043 84 234 0.0 9.0 0.00 0.01 0.01 38 1021.2
20260902230539 84 0 1.0 9.0 0.00 0.01 0.01 37 1021.2
20260902230059 84 160 1.0 5.0 0.00 0.01 0.01 39 1021.2
20260902225539 83 0 0.0 7.0 0.00 0.02 0.01 41 1021.2
20260902225039 83 151 1.0 7.0 0.00 0.02 0.01 42 1021.2
20260902224604 83 214 2.0 6.0 0.00 0.02 0.01 42 1021.2
20260902224039 83 56 0.0 7.0 0.00 0.02 0.01 43 1021.2
20260902223539 81 160 1.0 7.0 0.00 0.02 0.01 45 1021.2
20260902223101 81 96 3.0 7.0 0.00 0.02 0.01 46 1021.2
20260902222540 80 120 3.0 8.0 0.00 0.02 0.01 46 1021.2
20260902222039 79 191 3.0 8.0 0.00 0.02 0.01 48 1021.2
20260902221603 79 143 4.0 8.0 0.00 0.02 0.01 48 1021.2
20260902221039 78 105 4.0 9.0 0.00 0.02 0.01 50 1021.2
20260902220539 77 0 1.0 9.0 0.00 0.02 0.01 52 1021.2
20260902220100 77 134 3.0 9.0 0.00 0.02 0.01 52 1021.2
20260902215543 78 130 4.0 9.0 0.00 0.02 0.01 52 1021.2
20260902215039 79 184 1.0 10.0 0.00 0.02 0.01 50 1021.2
20260902214550 80 126 2.0 10.0 0.00 0.02 0.01 48 1021.2
20260902214039 82 120 0.0 0.0 0.00 0.02 0.01 41 1021.2
20260902213539 82 0 0.0 0.0 0.00 0.02 0.01 41 1021.2
20260902213105 82 0 0.0 0.0 0.00 0.02 0.01 44 1021.2
20260902212539 81 0 0.0 1.0 0.00 0.02 0.01 44 1021.2
20260902212042 81 0 0.0 1.0 0.00 0.02 0.01 45 1021.2
20260902211601 81 0 0.0 3.0 0.00 0.02 0.01 46 1021.2
20260902211039 80 0 0.0 4.0 0.00 0.02 0.01 47 1021.2
20260902210539 81 0 0.0 5.0 0.00 0.02 0.01 48 1021.2
20260902210051 81 0 0.0 5.0 0.00 0.02 0.01 49 1021.2
20260902205538 81 0 0.0 3.0 0.00 0.02 0.01 48 1021.2
20260902205042 81 0 1.0 3.0 0.00 0.02 0.01 46 1021.2
20260902204602 81 288 0.0 0.0 0.00 0.02 0.01 45 1021.2
20260902204040 81 0 0.0 5.0 0.00 0.02 0.01 46 1021.2
20260902203540 81 0 0.0 5.0 0.00 0.02 0.01 46 1021.2
20260902203120 81 0 1.0 5.0 0.00 0.02 0.01 47 1021.2
20260902202542 81 193 1.0 7.0 0.00 0.02 0.01 48 1021.2
20260902202039 81 0 3.0 7.0 0.00 0.02 0.01 47 1021.2
20260902201553 81 245 4.0 7.0 0.00 0.02 0.01 48 1021.2
20260902201039 81 241 1.0 8.0 0.00 0.02 0.01 47 1021.2
20260902200539 81 0 0.0 8.0 0.00 0.02 0.01 46 1021.2
20260902200100 81 226 2.0 8.0 0.00 0.02 0.01 46 1021.2
20260902195540 81 159 1.0 7.0 0.00 0.05 0.01 50 1021.2
20260902195039 80 205 2.0 6.0 0.00 0.05 0.01 52 1021.2
20260902194559 78 205 1.0 6.0 0.00 0.05 0.01 56 1021.2
20260902194039 78 0 0.0 6.0 0.01 0.05 0.01 57 1021.2
20260902193540 76 212 0.0 7.0 0.01 0.05 0.01 57 1021.2
20260902193052 75 0 2.0 9.0 0.01 0.05 0.01 58 1021.2
20260902192538 75 283 2.0 9.0 0.01 0.05 0.01 61 1021.2
20260902192043 74 259 2.0 8.0 0.01 0.05 0.01 62 1021.2
20260902191559 73 233 2.0 7.0 0.01 0.05 0.01 68 1021.2
20260902191039 72 252 2.0 7.0 0.01 0.05 0.01 67 1021.2
20260902190538 71 0 2.0 7.0 0.01 0.05 0.01 68 1021.2
20260902190100 71 219 1.0 6.0 0.01 0.05 0.01 75 1021.2
20260902185540 71 0 0.0 6.0 0.01 0.19 0.01 74 1021.2
20260902185039 70 214 1.0 6.0 0.01 0.19 0.01 70 1021.2
20260902184559 70 0 0.0 2.0 0.01 0.19 0.01 77 1021.2
20260902184039 70 0 0.0 0.0 0.00 0.18 0.00 78 1021.2
20260902183540 70 0 0.0 1.0 0.00 0.18 0.00 78 1021.2
20260902183118 70 0 0.0 7.0 0.00 0.18 0.00 76 1021.2
20260902182539 70 0 3.0 7.0 0.00 0.18 0.00 72 1021.2
20260902182044 72 133 2.0 5.0 0.00 0.18 0.00 66 1021.2
20260902181558 73 153 1.0 5.0 0.00 0.18 0.00 62 1021.2
20260902181040 73 0 1.0 7.0 0.00 0.18 0.00 62 1021.2
20260902180539 74 56 3.0 10.0 0.00 0.18 0.00 59 1021.2
20260902180055 75 148 2.0 10.0 0.00 0.18 0.00 57 1021.2
20260902175540 77 64 4.0 10.0 0.00 0.18 0.00 53 1021.2
20260902175039 78 0 0.0 6.0 0.00 0.18 0.00 50 1021.2
20260902174608 78 0 0.0 7.0 0.00 0.18 0.00 50 1021.2
20260902174038 78 215 1.0 7.0 0.00 0.18 0.00 49 1021.2
20260902173539 78 158 3.0 8.0 0.00 0.18 0.00 49 1021.2
20260902173059 79 245 3.0 9.0 0.00 0.18 0.00 48 1021.2
20260902172539 78 237 4.0 9.0 0.00 0.18 0.00 48 1021.2
20260902172042 78 243 5.0 9.0 0.00 0.18 0.00 49 1021.2
20260902171605 79 224 3.0 7.0 0.00 0.18 0.00 48 1021.2
20260902171042 79 284 2.0 6.0 0.00 0.18 0.00 47 1021.2
20260902170539 79 212 0.0 5.0 0.00 0.18 0.00 47 1021.2
20260902165539 79 293 0.0 7.0 0.00 0.18 0.00 47 1021.2
20260902165039 80 293 1.0 7.0 0.00 0.18 0.00 47 1021.2
20260902164600 80 0 0.0 8.0 0.00 0.18 0.00 45 1021.2
20260902164039 80 270 0.0 8.0 0.00 0.18 0.00 47 1021.2
20260902163539 80 0 1.0 8.0 0.00 0.18 0.00 46 1021.2
20260902163116 81 0 1.0 7.0 0.00 0.18 0.00 45 1021.2
20260902162537 81 0 0.0 7.0 0.00 0.18 0.00 45 1021.2
20260902162037 82 283 0.0 7.0 0.00 0.18 0.00 43 1021.2
20260902161603 82 0 1.0 7.0 0.00 0.18 0.00 44 1021.2
20260902161037 82 0 1.0 5.0 0.00 0.18 0.00 44 1021.2
20260902160539 82 0 2.0 4.0 0.00 0.18 0.00 45 1021.2
20260902155539 81 107 2.0 5.0 0.00 0.18 0.00 45 1021.2
20260902155039 80 0 1.0 4.0 0.00 0.18 0.00 46 1021.2
20260902154554 80 101 1.0 4.0 0.00 0.18 0.00 46 1021.2
20260902154036 80 0 0.0 2.0 0.00 0.18 0.00 47 1021.2
20260902153537 78 0 0.0 5.0 0.00 0.18 0.00 49 1021.2
20260902153059 79 0 0.0 6.0 0.00 0.18 0.00 48 1021.2
20260902152536 79 0 0.0 8.0 0.00 0.18 0.00 48 1021.2
20260902152039 79 229 3.0 8.0 0.00 0.18 0.00 47 1021.2
20260902151555 79 240 1.0 6.0 0.00 0.18 0.00 48 1021.2
20260902151039 79 225 1.0 6.0 0.00 0.18 0.00 48 1021.2
20260902150538 78 224 2.0 6.0 0.00 0.18 0.00 49 1021.2
20260902150056 79 236 3.0 6.0 0.00 0.18 0.00 48 1021.2
20260902145538 79 179 1.0 5.0 0.00 0.18 0.00 48 1021.2
20260902145039 79 0 0.0 4.0 0.00 0.18 0.00 48 1021.2
20260902144553 79 155 2.0 4.0 0.00 0.18 0.00 48 1021.2
20260902144038 79 0 1.0 4.0 0.00 0.18 0.00 48 1021.2
20260902143543 79 0 0.0 9.0 0.00 0.18 0.00 48 1021.2
20260902143048 78 140 4.0 9.0 0.00 0.18 0.00 49 1021.2
20260902142540 79 242 2.0 6.0 0.00 0.18 0.00 49 1021.2
20260902142038 78 165 2.0 5.0 0.00 0.18 0.00 49 1021.2
20260902141557 78 158 0.0 0.0 0.00 0.18 0.00 50 1021.2
20260902141038 78 0 0.0 0.0 0.00 0.18 0.00 53 1021.2
20260902140538 77 0 0.0 0.0 0.00 0.18 0.00 55 1021.2
20260902140054 76 0 0.0 0.0 0.00 0.18 0.00 56 1021.2
20260902135538 75 0 0.0 0.0 0.00 0.18 0.00 58 1021.2
20260902135040 75 0 0.0 0.0 0.00 0.18 0.00 60 1021.2
20260902134557 74 0 0.0 0.0 0.00 0.18 0.00 59 1021.2
20260902134038 74 0 0.0 0.0 0.00 0.18 0.00 62 1021.2
20260902133541 73 0 0.0 3.0 0.00 0.18 0.00 62 1021.2
20260902133108 72 0 0.0 3.0 0.00 0.18 0.00 64 1021.2
20260902132538 70 0 0.0 1.0 0.00 0.18 0.00 69 1021.2
20260902132038 69 0 0.0 0.0 0.00 0.18 0.00 70 1021.2
20260902131601 68 0 0.0 0.0 0.00 0.18 0.00 74 1021.2
20260902131038 67 0 0.0 1.0 0.00 0.18 0.00 73 1021.2
20260902130539 66 0 0.0 1.0 0.00 0.18 0.00 75 1021.2
20260902130052 65 0 0.0 1.0 0.00 0.18 0.00 75 1021.2
20260902125539 65 0 0.0 0.0 0.00 0.18 0.00 75 1021.2
20260902125039 65 0 0.0 0.0 0.00 0.18 0.00 76 1021.2
20260902124554 65 0 0.0 0.0 0.00 0.18 0.00 75 1021.2
20260902124040 65 0 0.0 0.0 0.00 0.18 0.00 73 1021.2
20260902123543 66 0 0.0 0.0 0.00 0.18 0.00 73 1021.2
20260902123115 66 0 0.0 0.0 0.00 0.18 0.00 72 1021.2
20260902122539 66 0 0.0 0.0 0.00 0.18 0.00 72 1021.2
20260902122039 67 0 0.0 0.0 0.00 0.18 0.00 71 1021.2
20260902121557 67 0 0.0 3.0 0.00 0.18 0.00 71 1021.2
20260902121040 67 0 0.0 3.0 0.00 0.18 0.00 71 1021.2
20260902120540 66 0 0.0 3.0 0.00 0.18 0.00 73 1021.2
20260902120108 65 0 0.0 0.0 0.00 0.18 0.00 74 1021.2
20260902115542 65 0 0.0 0.0 0.00 0.18 0.00 74 1021.2
20260902115039 66 0 0.0 0.0 0.00 0.18 0.00 74 1021.2
20260902114558 66 0 0.0 0.0 0.00 0.18 0.00 72 1021.2
20260902114044 67 0 0.0 0.0 0.00 0.18 0.00 71 1021.2
20260902113540 67 0 0.0 0.0 0.00 0.18 0.00 70 1021.2
20260902113054 68 0 0.0 0.0 0.00 0.18 0.00 68 1021.2
20260902112540 68 0 0.0 0.0 0.00 0.18 0.00 68 1021.2
20260902112040 69 0 0.0 0.0 0.00 0.18 0.00 67 1021.2
20260902111604 69 0 0.0 0.0 0.00 0.18 0.00 66 1021.2
20260902111040 69 0 0.0 0.0 0.00 0.18 0.00 65 1021.2
20260902110540 69 0 0.0 0.0 0.00 0.18 0.00 66 1021.2
20260902110055 69 0 0.0 0.0 0.00 0.18 0.00 65 1021.2
20260902105541 70 0 0.0 0.0 0.00 0.18 0.00 65 1021.2
20260902105042 70 0 0.0 0.0 0.00 0.18 0.00 64 1021.2
20260902104555 70 0 0.0 0.0 0.00 0.18 0.00 65 1021.2
20260902104040 70 0 0.0 0.0 0.00 0.18 0.00 64 1021.2
20260902103540 70 0 0.0 0.0 0.00 0.18 0.00 65 1021.2
20260902103053 70 0 0.0 5.0 0.00 0.18 0.00 64 1021.2
20260902102540 69 0 0.0 5.0 0.00 0.18 0.00 65 1021.2
20260902102041 69 0 0.0 3.0 0.00 0.18 0.00 66 1021.2
20260902101556 69 0 0.0 4.0 0.00 0.18 0.00 66 1021.2
20260902101040 69 0 0.0 4.0 0.00 0.18 0.00 68 1021.2
20260902100540 68 0 0.0 3.0 0.00 0.18 0.00 70 1021.2
20260902100106 68 0 0.0 0.0 0.00 0.18 0.00 71 1021.2
20260902095540 68 0 0.0 0.0 0.00 0.18 0.00 71 1021.2
20260902095041 68 0 0.0 1.0 0.00 0.18 0.00 69 1021.2
20260902094552 69 0 0.0 1.0 0.00 0.18 0.00 68 1021.2
20260902094040 69 0 0.0 0.0 0.00 0.18 0.00 67 1021.2
20260902093539 70 0 0.0 0.0 0.00 0.18 0.00 67 1021.2
20260902093058 70 0 0.0 3.0 0.00 0.18 0.00 66 1021.2
20260902092542 70 0 0.0 3.0 0.00 0.18 0.00 66 1021.2
20260902092039 70 0 0.0 2.0 0.00 0.18 0.00 66 1021.2
20260902091558 70 0 0.0 1.0 0.00 0.18 0.00 66 1021.2
20260902091040 70 0 0.0 1.0 0.00 0.18 0.00 66 1021.2
20260902090539 70 0 0.0 3.0 0.00 0.18 0.00 66 1021.2
20260902090059 70 0 0.0 3.0 0.00 0.18 0.00 65 1021.2
20260902085540 71 347 0.0 3.0 0.00 0.18 0.00 65 1021.2
20260902085040 71 0 0.0 6.0 0.00 0.18 0.00 64 1021.2
20260902084550 71 0 0.0 6.0 0.00 0.18 0.00 63 1021.2
20260902084042 71 0 1.0 6.0 0.00 0.18 0.00 62 1021.2
20260902083539 71 0 0.0 7.0 0.00 0.18 0.00 63 1021.2
20260902083117 71 0 1.0 9.0 0.00 0.18 0.00 63 1021.2
20260902082540 72 0 0.0 12.0 0.00 0.18 0.00 62 1021.2
20260902082039 72 51 3.0 12.0 0.00 0.18 0.00 62 1021.2
20260902081553 71 288 1.0 10.0 0.00 0.18 0.00 63 1021.2
20260902081039 71 0 1.0 16.0 0.00 0.18 0.00 63 1021.2
20260902080539 71 165 2.0 16.0 0.00 0.18 0.00 62 1021.2
20260902080055 71 257 5.0 16.0 0.00 0.18 0.00 62 1021.2
20260902075539 71 225 3.0 10.0 0.00 0.18 0.00 63 1021.2
20260902075041 71 9 3.0 9.0 0.00 0.18 0.00 63 1021.2
20260902074609 71 0 0.0 7.0 0.00 0.18 0.00 63 1021.2
20260902074041 71 58 0.0 5.0 0.00 0.18 0.00 63 1021.2
20260902073539 71 0 0.0 8.0 0.00 0.18 0.00 62 1021.2
20260902073053 71 0 0.0 8.0 0.00 0.18 0.00 62 1021.2
20260902072540 71 0 3.0 8.0 0.00 0.18 0.00 62 1021.2
20260902072039 71 114 1.0 8.0 0.00 0.18 0.00 62 1021.2
20260902071556 71 82 2.0 7.0 0.00 0.18 0.00 62 1021.2
20260902071043 71 214 0.0 6.0 0.00 0.18 0.00 62 1021.2
20260902070541 71 0 0.0 4.0 0.00 0.18 0.00 62 1021.2
20260902070059 71 0 0.0 7.0 0.00 0.18 0.00 62 1021.2
20260902065540 71 0 1.0 7.0 0.00 0.18 0.00 62 1021.2
20260902065040 71 27 1.0 7.0 0.00 0.18 0.00 63 1021.2
20260902064603 71 297 1.0 6.0 0.00 0.18 0.00 62 1021.2
20260902064040 71 0 0.0 9.0 0.00 0.18 0.00 61 1021.2
20260902063539 72 327 1.0 9.0 0.00 0.18 0.00 61 1021.2
20260902063059 72 34 1.0 12.0 0.00 0.18 0.00 61 1021.2
20260902062539 72 0 2.0 12.0 0.00 0.18 0.00 61 1021.2
20260902062040 71 0 0.0 4.0 0.00 0.18 0.00 62 1021.2
20260902061558 71 0 0.0 2.0 0.00 0.18 0.00 62 1021.2
20260902061040 70 0 0.0 4.0 0.00 0.18 0.00 62 1021.2
20260902060539 69 0 0.0 4.0 0.00 0.18 0.00 62 1021.2
20260902060109 68 328 0.0 4.0 0.00 0.18 0.00 65 1021.2
20260902055542 68 0 0.0 2.0 0.00 0.18 0.00 64 1021.2
20260902055038 69 0 0.0 2.0 0.00 0.18 0.00 62 1021.2
20260902054557 69 314 0.0 2.0 0.00 0.18 0.00 62 1021.2
20260902054039 70 0 0.0 2.0 0.00 0.18 0.00 62 1021.2
20260902053539 70 0 0.0 7.0 0.00 0.18 0.00 60 1021.2
20260902053051 71 0 0.0 7.0 0.00 0.18 0.00 59 1021.2
20260902052541 72 0 0.0 6.0 0.00 0.18 0.00 57 1021.2
20260902052039 72 0 0.0 6.0 0.00 0.18 0.00 56 1021.2
20260902051548 72 0 1.0 12.0 0.00 0.18 0.00 57 1021.2
20260902051039 71 329 3.0 12.0 0.00 0.18 0.00 58 1021.2
20260902050541 68 0 0.0 11.0 0.00 0.18 0.00 62 1021.2
20260902050105 63 62 0.0 3.0 0.00 0.18 0.00 71 1021.2
20260902045539 63 0 0.0 0.0 0.00 0.18 0.18 70 1021.2
20260902045039 63 0 0.0 0.0 0.00 0.18 0.18 70 1021.2
20260902044555 64 0 0.0 2.0 0.00 0.18 0.18 68 1021.2
20260902044040 64 0 0.0 2.0 0.00 0.18 0.18 68 1021.2
20260902043538 65 0 0.0 2.0 0.00 0.18 0.18 68 1021.2
20260902043052 65 0 0.0 2.0 0.00 0.18 0.18 66 1021.2
20260902042541 66 0 0.0 0.0 0.00 0.18 0.18 65 1021.2
20260902042041 65 0 0.0 0.0 0.00 0.18 0.18 68 1021.2
20260902041558 65 0 0.0 0.0 0.00 0.18 0.18 67 1021.2
20260902041040 66 0 0.0 0.0 0.00 0.18 0.18 67 1021.2
20260902040539 66 0 0.0 3.0 0.00 0.18 0.18 63 1021.2
20260902040057 66 0 0.0 3.0 0.00 0.18 0.18 67 1021.2
20260902035539 66 0 0.0 3.0 0.00 0.18 0.18 66 1021.2
20260902035040 67 0 0.0 2.0 0.00 0.18 0.18 63 1021.2
20260902034554 68 0 0.0 2.0 0.00 0.18 0.18 62 1021.2
20260902034040 68 176 0.0 0.0 0.00 0.18 0.18 62 1021.2
20260902033539 68 0 0.0 0.0 0.00 0.18 0.18 62 1021.2
20260902033055 68 0 0.0 0.0 0.00 0.18 0.18 62 1021.2
20260902032540 67 0 0.0 0.0 0.00 0.18 0.18 65 1021.2
20260902032039 68 0 0.0 0.0 0.00 0.18 0.18 64 1021.2
20260902031612 69 0 0.0 0.0 0.00 0.18 0.18 64 1021.2
20260902031039 70 0 0.0 0.0 0.00 0.18 0.18 61 1021.2
20260902030540 71 0 0.0 0.0 0.00 0.18 0.18 57 1021.2
20260902030055 72 0 0.0 0.0 0.00 0.18 0.18 55 1021.2
20260902025540 73 0 0.0 4.0 0.00 0.18 0.18 53 1021.2
20260902025042 73 0 0.0 4.0 0.00 0.18 0.18 52 1021.2
20260902024556 73 0 0.0 4.0 0.00 0.18 0.18 53 1021.2
20260902024040 73 0 0.0 3.0 0.00 0.18 0.18 53 1021.2
20260902023540 73 0 0.0 3.0 0.00 0.18 0.18 54 1021.2
20260902023056 73 324 0.0 3.0 0.00 0.18 0.18 53 1021.2
20260902022540 73 0 0.0 3.0 0.00 0.18 0.18 53 1021.2
20260902022039 73 0 0.0 3.0 0.00 0.18 0.18 53 1021.2
20260902021606 74 0 0.0 6.0 0.00 0.18 0.18 52 1021.2
20260902021041 74 0 0.0 6.0 0.00 0.18 0.18 51 1021.2
20260902020540 74 278 1.0 13.0 0.00 0.18 0.18 51 1021.2
20260902020109 74 0 2.0 13.0 0.00 0.18 0.18 51 1021.2
20260902015541 74 243 2.0 11.0 0.00 0.18 0.18 52 1021.2
20260902015040 74 259 1.0 9.0 0.00 0.18 0.18 52 1021.2
20260902014555 73 188 1.0 8.0 0.00 0.18 0.18 53 1021.2
20260902014040 74 87 0.0 8.0 0.00 0.18 0.18 55 1021.2
20260902013539 75 0 0.0 8.0 0.00 0.18 0.18 53 1021.2
20260902013054 75 0 0.0 6.0 0.00 0.18 0.18 51 1021.2
20260902012540 75 0 3.0 6.0 0.00 0.18 0.18 50 1021.2
20260902012039 75 0 0.0 0.0 0.00 0.18 0.18 52 1021.2
20260902011555 75 0 0.0 0.0 0.00 0.18 0.18 55 1021.2
20260902011039 76 0 0.0 0.0 0.00 0.18 0.18 53 1021.2
20260902010541 76 0 0.0 3.0 0.00 0.18 0.18 51 1021.2
20260902010056 76 0 0.0 5.0 0.00 0.18 0.18 48 1021.2
20260902005539 76 0 0.0 5.0 0.00 0.18 0.18 49 1021.2
20260902005039 77 103 1.0 5.0 0.00 0.18 0.18 50 1021.2
20260902004559 77 0 0.0 5.0 0.00 0.18 0.18 49 1021.2
20260902004039 77 0 1.0 5.0 0.00 0.18 0.18 50 1021.2
20260902003539 77 0 1.0 4.0 0.00 0.18 0.18 51 1021.2
20260902003055 78 101 2.0 5.0 0.00 0.18 0.18 52 1021.2
20260902002538 77 0 0.0 5.0 0.00 0.18 0.18 55 1021.2
20260902002038 77 75 0.0 0.0 0.00 0.18 0.18 56 1021.2
20260902001558 76 0 0.0 0.0 0.00 0.18 0.18 54 1021.2
20260902001038 76 0 0.0 0.0 0.00 0.18 0.18 62 1021.2
20260902000541 75 0 0.0 0.0 0.00 0.18 0.18 64 1021.2
20260901235540 73 0 0.0 1.0 0.00 0.18 0.18 71 1021.2